• In Netherlands
  • List of Countries
  • For 7 days
  • Water Temperature
  • Satellite Maps
  • Weather Map
  • Weather Widgets
  • user-avatar
    Login

    Hourly Weather Wien

    Today, 19 August, Saturday

    Time Temperature Precipitation Wind Pressure Humidity
    00:00 +25°C° 0 mm 3 mps 742 mmHg 54%
    01:00 +24°C° 0 mm 3 mps 742 mmHg 55%
    02:00 +24°C° 0 mm 3 mps 742 mmHg 61%
    03:00 +22°C° 0 mm 4 mps 742 mmHg 66%
    04:00 +21°C° 0 mm 4 mps 742 mmHg 71%
    05:00 +22°C° 0 mm 4 mps 743 mmHg 71%
    06:00 +22°C° 0 mm 5 mps 743 mmHg 72%
    07:00 +22°C° 0 mm 5 mps 744 mmHg 72%
    08:00 +22°C° 0.2 mm 5 mps 744 mmHg 72%
    09:00 +22°C° 0.2 mm 5 mps 745 mmHg 73%
    10:00 +21°C° 0.2 mm 6 mps 745 mmHg 73%
    11:00 +21°C° 0.5 mm 5 mps 745 mmHg 75%
    12:00 +20°C° 0.5 mm 4 mps 745 mmHg 77%
    13:00 +20°C° 0.5 mm 4 mps 745 mmHg 79%
    14:00 +20°C° 0.1 mm 4 mps 745 mmHg 79%
    15:00 +19°C° 0.1 mm 4 mps 746 mmHg 80%
    16:00 +19°C° 0.1 mm 4 mps 746 mmHg 80%
    17:00 +19°C° 0.3 mm 4 mps 746 mmHg 81%
    18:00 +18°C° 0.3 mm 4 mps 746 mmHg 83%
    19:00 +18°C° 0.3 mm 4 mps 746 mmHg 84%
    20:00 +17°C° 0.7 mm 4 mps 746 mmHg 84%
    21:00 +17°C° 0.7 mm 3 mps 746 mmHg 84%
    22:00 +17°C° 0.7 mm 3 mps 746 mmHg 84%
    23:00 +17°C° 0 mm 3 mps 746 mmHg 84%

    Tomorrow, 20 August, Sunday

    Time Temperature Precipitation Wind Pressure Humidity
    00:00 +16°C° 0 mm 3 mps 746 mmHg 83%
    01:00 +16°C° 0 mm 3 mps 746 mmHg 83%
    02:00 +16°C° 0.1 mm 3 mps 746 mmHg 83%
    03:00 +16°C° 0.1 mm 3 mps 746 mmHg 83%
    04:00 +16°C° 0.1 mm 3 mps 746 mmHg 84%
    05:00 +15°C° 0 mm 4 mps 746 mmHg 81%
    06:00 +15°C° 0 mm 4 mps 746 mmHg 78%
    07:00 +17°C° 0 mm 4 mps 746 mmHg 75%
    08:00 +17°C° 0 mm 5 mps 746 mmHg 66%
    09:00 +20°C° 0 mm 5 mps 747 mmHg 57%
    10:00 +22°C° 0 mm 6 mps 747 mmHg 48%
    11:00 +23°C° 0 mm 6 mps 747 mmHg 44%
    12:00 +24°C° 0 mm 6 mps 746 mmHg 41%
    13:00 +26°C° 0 mm 5 mps 746 mmHg 38%
    14:00 +25°C° 0 mm 5 mps 746 mmHg 39%
    15:00 +25°C° 0 mm 5 mps 746 mmHg 40%
    16:00 +25°C° 0 mm 5 mps 746 mmHg 40%
    17:00 +23°C° 0 mm 5 mps 746 mmHg 46%
    18:00 +21°C° 0 mm 4 mps 746 mmHg 51%
    19:00 +19°C° 0 mm 3 mps 746 mmHg 57%
    20:00 +18°C° 0 mm 3 mps 747 mmHg 60%
    21:00 +18°C° 0 mm 3 mps 747 mmHg 64%
    22:00 +17°C° 0 mm 3 mps 748 mmHg 67%
    23:00 +16°C° 0 mm 3 mps 748 mmHg 68%

    Day after tomorrow, 21 August, Monday

    Time Temperature Precipitation Wind Pressure Humidity
    00:00 +16°C° 0 mm 3 mps 748 mmHg 69%
    01:00 +14°C° 0 mm 3 mps 747 mmHg 71%
    02:00 +14°C° 0 mm 3 mps 747 mmHg 71%
    03:00 +13°C° 0 mm 3 mps 747 mmHg 72%
    04:00 +13°C° 0 mm 3 mps 747 mmHg 73%
    05:00 +14°C° 0 mm 4 mps 747 mmHg 69%
    06:00 +15°C° 0 mm 4 mps 748 mmHg 66%
    07:00 +15°C° 0 mm 4 mps 748 mmHg 63%
    08:00 +17°C° 0 mm 5 mps 748 mmHg 57%
    09:00 +20°C° 0 mm 5 mps 748 mmHg 52%
    10:00 +21°C° 0 mm 5 mps 748 mmHg 47%
    11:00 +22°C° 0 mm 5 mps 747 mmHg 45%
    12:00 +22°C° 0 mm 5 mps 747 mmHg 43%
    13:00 +23°C° 0 mm 5 mps 747 mmHg 40%
    14:00 +23°C° 0 mm 5 mps 747 mmHg 41%
    15:00 +23°C° 0 mm 5 mps 747 mmHg 41%
    16:00 +23°C° 0 mm 5 mps 746 mmHg 42%
    17:00 +21°C° 0 mm 4 mps 746 mmHg 46%
    18:00 +20°C° 0 mm 4 mps 747 mmHg 50%
    19:00 +19°C° 0 mm 3 mps 747 mmHg 54%
    20:00 +18°C° 0 mm 3 mps 747 mmHg 59%
    21:00 +17°C° 0 mm 3 mps 747 mmHg 63%
    22:00 +15°C° 0 mm 2 mps 747 mmHg 67%
    23:00 +15°C° 0 mm 2 mps 747 mmHg 69%

    22 August, Tuesday

    Time Temperature Precipitation Wind Pressure Humidity
    00:00 +15°C° 0 mm 2 mps 747 mmHg 72%
    01:00 +13°C° 0 mm 3 mps 747 mmHg 74%
    02:00 +13°C° 0 mm 3 mps 747 mmHg 75%
    03:00 +12°C° 0 mm 3 mps 747 mmHg 77%
    04:00 +12°C° 0 mm 3 mps 747 mmHg 78%
    05:00 +13°C° 0 mm 3 mps 747 mmHg 75%
    06:00 +14°C° 0 mm 4 mps 747 mmHg 72%
    07:00 +15°C° 0 mm 4 mps 748 mmHg 69%
    08:00 +18°C° 0 mm 4 mps 747 mmHg 63%
    09:00 +20°C° 0 mm 4 mps 747 mmHg 58%
    10:00 +21°C° 0 mm 4 mps 747 mmHg 53%
    11:00 +22°C° 0 mm 4 mps 747 mmHg 50%
    12:00 +23°C° 0 mm 4 mps 747 mmHg 47%
    13:00 +23°C° 0 mm 4 mps 746 mmHg 45%
    14:00 +23°C° 0 mm 4 mps 746 mmHg 44%
    15:00 +25°C° 0 mm 4 mps 746 mmHg 44%
    16:00 +25°C° 0 mm 4 mps 746 mmHg 43%
    17:00 +22°C° 0 mm 3 mps 746 mmHg 49%
    18:00 +20°C° 0 mm 2 mps 746 mmHg 55%
    19:00 +18°C° 0 mm 2 mps 746 mmHg 61%
    20:00 +17°C° 0 mm 2 mps 746 mmHg 64%
    21:00 +18°C° 0 mm 1 mps 746 mmHg 67%
    22:00 +16°C° 0 mm 1 mps 746 mmHg 71%
    23:00 +15°C° 0 mm 1 mps 746 mmHg 73%

    23 August, Wednesday

    Time Temperature Precipitation Wind Pressure Humidity
    00:00 +15°C° 0 mm 1 mps 746 mmHg 75%
    01:00 +14°C° 0 mm 1 mps 746 mmHg 78%
    02:00 +14°C° 0 mm 1 mps 746 mmHg 79%
    03:00 +13°C° 0 mm 1 mps 746 mmHg 81%
    04:00 +13°C° 0 mm 1 mps 746 mmHg 82%
    05:00 +14°C° 0 mm 1 mps 746 mmHg 78%
    06:00 +15°C° 0 mm 1 mps 746 mmHg 73%
    07:00 +18°C° 0 mm 1 mps 746 mmHg 69%
    08:00 +20°C° 0 mm 1 mps 746 mmHg 61%
    09:00 +22°C° 0 mm 1 mps 746 mmHg 54%
    10:00 +24°C° 0 mm 1 mps 746 mmHg 46%
    11:00 +26°C° 0 mm 1 mps 746 mmHg 42%
    12:00 +27°C° 0 mm 1 mps 745 mmHg 37%
    13:00 +28°C° 0 mm 1 mps 745 mmHg 32%
    14:00 +28°C° 0 mm 1 mps 745 mmHg 31%
    15:00 +28°C° 0 mm 1 mps 744 mmHg 30%
    16:00 +28°C° 0 mm 1 mps 744 mmHg 29%
    17:00 +26°C° 0 mm 1 mps 744 mmHg 34%
    18:00 +24°C° 0 mm 1 mps 744 mmHg 39%
    19:00 +20°C° 0 mm 0 mps 744 mmHg 44%
    20:00 +21°C° 0 mm 1 mps 744 mmHg 46%
    21:00 +20°C° 0 mm 1 mps 745 mmHg 47%
    22:00 +19°C° 0 mm 1 mps 745 mmHg 49%
    23:00 +19°C° 0 mm 1 mps 745 mmHg 51%

    24 August, Thursday

    Time Temperature Precipitation Wind Pressure Humidity
    00:00 +19°C° 0 mm 1 mps 745 mmHg 52%
    01:00 +18°C° 0 mm 1 mps 745 mmHg 54%
    02:00 +18°C° 0 mm 1 mps 745 mmHg 55%
    03:00 +16°C° 0 mm 1 mps 745 mmHg 57%
    04:00 +15°C° 0 mm 0 mps 745 mmHg 58%
    05:00 +16°C° 0 mm 0 mps 745 mmHg 56%
    06:00 +17°C° 0 mm 0 mps 745 mmHg 53%
    07:00 +19°C° 0 mm 0 mps 745 mmHg 51%
    08:00 +23°C° 0 mm 1 mps 745 mmHg 46%
    09:00 +25°C° 0 mm 1 mps 746 mmHg 41%
    10:00 +28°C° 0 mm 1 mps 746 mmHg 36%
    11:00 +29°C° 0 mm 1 mps 745 mmHg 34%
    12:00 +30°C° 0 mm 1 mps 745 mmHg 32%
    13:00 +32°C° 0 mm 1 mps 745 mmHg 29%
    14:00 +32°C° 0 mm 1 mps 745 mmHg 29%
    15:00 +32°C° 0 mm 1 mps 744 mmHg 29%
    16:00 +32°C° 0 mm 1 mps 744 mmHg 30%
    17:00 +30°C° 0 mm 1 mps 744 mmHg 35%
    18:00 +28°C° 0 mm 1 mps 744 mmHg 41%
    19:00 +26°C° 0 mm 1 mps 744 mmHg 46%
    20:00 +25°C° 0.1 mm 1 mps 744 mmHg 50%
    21:00 +25°C° 0.1 mm 2 mps 744 mmHg 54%
    22:00 +24°C° 0.1 mm 2 mps 745 mmHg 58%
    23:00 +23°C° 0.1 mm 2 mps 745 mmHg 61%
    Show more